Regional Weather Roundup
Issued by NWS

Home | Current Version | Previous Version | Graphics & Text | Print | Product List | Glossary On
Versions: 1 2 3 4 5 6 7 8 9 10 11 12 13 14 15 16 17 18 19 20 21 22 23 24 25 26 27 28 29 30 31 32 33 34 35 36 37 38 39 40 41 42 43 44 45 46 47 48 49 50
015
ASUS43 KOAX 060802
RWRNE

WEATHER ROUNDUP FOR NEBRASKA
NATIONAL WEATHER SERVICE OMAHA NE
200 AM CST SAT FEB 06 2016

NOTES: SATELLITE DATA IS BEING USED TO AUGMENT CLOUD COVER ABOVE
       12000 FEET.
       "FAIR" INDICATES FEW OR NO CLOUDS BELOW 12,000 FEET WITH NO
       SIGNIFICANT WEATHER AND/OR OBSTRUCTIONS TO VISIBILITY.

  * THESE STATIONS DO NOT REPORT WEATHER SUCH AS RAIN...SNOW OR FOG.

NEZ001>004-019>022-054>056-060900-
NEBRASKA PANHANDLE

CITY           SKY/WX    TMP DP  RH WIND       PRES   REMARKS
SCOTTSBLUFF    CLEAR     15   9  76 CALM      30.22F
ALLIANCE       CLOUDY    11   7  84 W13       30.18F WCI  -4
CHADRON        CLOUDY    22  13  68 SW9       30.18F WCI  12
SIDNEY         CLOUDY    19   9  65 W17       30.23F WCI   4
$$

NEZ057>060-069>072-079>082-060900-
SOUTHWEST NEBRASKA

CITY           SKY/WX    TMP DP  RH WIND       PRES   REMARKS
NORTH PLATTE   CLOUDY    12   7  80 NW6       30.26F WCI   3
IMPERIAL       CLOUDY    17   9  70 W9        30.26F WCI   6
MCCOOK         CLOUDY    17  13  84 SW6       30.28F WCI   9
$$

NEZ005>010-023>029-035>040-094-060900-
NORTH CENTRAL NEBRASKA

CITY           SKY/WX    TMP DP  RH WIND       PRES   REMARKS
VALENTINE      CLOUDY    19  16  88 SW6       30.17F WCI  11
BROKEN BOW     CLOUDY    17  16  95 CALM      30.23F
ORD            CLEAR     23  20  88 NW5       30.24F WCI  17
$$

NEZ041-046>049-061>064-073>077-083>087-060900-
SOUTH CENTRAL NEBRASKA

CITY           SKY/WX    TMP DP  RH WIND       PRES   REMARKS
GRAND ISLAND   CLEAR     23  20  88 W8        30.27S WCI  14
HASTINGS       CLEAR     22  18  85 NW7       30.26S WCI  13
KEARNEY *      CLEAR     21 -24  12 W6        30.27F WCI  14
$$

NEZ011>018-030>034-042>045-060900-
NORTHEAST NEBRASKA

CITY           SKY/WX    TMP DP  RH WIND       PRES   REMARKS
NORFOLK        FOG       20  17  88 CALM      30.23S VSB 1/4
COLUMBUS *       N/A     19   9  63 CALM      30.26S VSB 1/4
TEKAMAH        CLOUDY    31  28  89 NW7       30.26S WCI  24
$$

NEZ050>053-065>068-078-088>093-060900-
SOUTHEAST NEBRASKA

CITY           SKY/WX    TMP DP  RH WIND       PRES   REMARKS
LINCOLN        CLOUDY    34  29  82 NW7       30.28S WCI  28
OMAHA EPPLEY   CLOUDY    30  28  92 NW8       30.26S WCI  22
FALLS CITY     CLEAR     28  24  85 NW3       30.26S
$$

NEZ044-045-051>053-067-060900-
OMAHA AREA

CITY           SKY/WX    TMP DP  RH WIND       PRES   REMARKS
OMAHA EPPLEY   CLOUDY    30  28  92 NW8       30.26S WCI  22
OFFUTT AFB     CLOUDY    30  30  99 W3        30.25S
$$




USA.gov is the U.S. government's official web portal to all federal, state and local government web resources and services.